Regional Weather Roundup
Issued by NWS

Home | Current Version | Previous Version | Graphics & Text | Print | Product List | Glossary On
Versions: 1 2 3 4 5 6 7 8 9 10 11 12 13 14 15 16 17 18 19 20 21 22 23 24 25 26 27 28 29 30 31 32 33 34 35 36 37 38 39 40 41 42 43 44 45 46 47 48 49 50
000
ASUS43 KMPX 201001
RWRMN
WEATHER ROUNDUP FOR MINNESOTA
NATIONAL WEATHER SERVICE TWIN CITIES/CHANHASSEN MN
500 AM CDT WED AUG 20 2014


NOTE: "FAIR" INDICATES FEW OR NO CLOUDS BELOW 12,000 FEET WITH NO
SIGNIFICANT WEATHER AND/OR OBSTRUCTIONS TO VISIBILITY. N/A MEANS
CURRENT SKY AND/OR WEATHER CONDITIONS ARE NOT AVAILABLE.

MNZ060>063-068>070-201100-
   Twin Cities Metro

CITY           SKY/WX    TMP DP  RH WIND       PRES   REMARKS
TWIN CITIES    PTCLDY    67  65  93 E3        29.82R
ST PAUL        CLEAR     65  64  97 CALM      29.83R
CRYSTAL        CLEAR     65  61  87 CALM      29.81R FOG
BLAINE         FOG       64  63  94 CALM      29.83R VSB 1/2
LAKEVILLE      FOG       59  59 100 CALM      29.82R VSB 1/2
EDEN PRAIRIE   CLEAR     65  64  97 NE3       29.80S
SOUTH ST PAUL  CLEAR     65  63  94 CALM      29.82R
LAKE ELMO      FOG       61  61 100 CALM      29.84R VSB 1/2
$$
MNZ001>005-007-008-013>017-022>024-027-028-201100-
   Northwest Minnesota

CITY           SKY/WX    TMP DP  RH WIND       PRES   REMARKS
BEMIDJI        CLEAR     58  58  99 CALM      29.84R FOG
HALLOCK        CLEAR     63  61  94 SE7       29.77R
ROSEAU         CLEAR     61  55  82 S3        29.81R
WARROAD        CLOUDY    63  61  94 SE5       29.82S
THIEF RVR FALL CLEAR     61  57  88 SE6       29.81R
CROOKSTON      CLEAR     61  61 100 SE6       29.79S
FOSSTON        CLEAR     61  55  82 SE3       29.82S
DETROIT LAKES  PTCLDY    64  63  94 SE6       29.83S
MOORHEAD       PTCLDY    66  66 100 SE5       29.79S
PARK RAPIDS    CLEAR     60  59  96 CALM      29.84R
MAHNOMEN       FAIR      62  60  94 SE5       29.81R
$$
MNZ006-009>011-018-025>026-201100-
   North Central Minnesota

CITY           SKY/WX    TMP DP  RH WIND       PRES   REMARKS
BAUDETTE       CLEAR     58  57  97 SE3       29.83S
FLAG ISLAND    CLEAR     66  63  88 S9        29.81S
INTL FALLS     PTCLDY    50  50 100 SE3       29.84S FOG
WASKISH        MOCLDY    55  55 100 CALM      29.83S
BIG FORK       FOG       50  48  93 CALM      29.86R VSB 1/4
LONGVILLE      PTCLDY    55  54  94 CALM      29.84R FOG
GRAND RAPIDS   CLOUDY    54  52  94 CALM      29.85S VSB 3/4
CRANE LAKE     FOG       52  50  93 CALM      29.86S VSB 1/4
ORR            FOG       50  48  93 CALM      29.83S VSB 1/2
COOK           FOG       50  50 100 CALM      29.86R VSB 1/2
WALKER         FAIR      58  58  97 CALM      29.83S
$$
MNZ012-019>021-037-201100-
   Northeast Minnesota

CITY           SKY/WX    TMP DP  RH WIND       PRES   REMARKS
DULUTH         FOG       59  58  96 CALM      29.85S VSB 1
ELY            CLOUDY    61  59  94 CALM      29.85S
HIBBING        FOG       50  49  96 NW3       29.85S VSB 1/4
EVELETH        CLOUDY    57  55  94 CALM      29.86S FOG
DULUTH HARBOR  CLOUDY    63  61  94 N6        29.85S
TWO HARBORS    CLOUDY    57  54  88 CALM      29.83S HAZE
SILVER BAY     CLEAR     55  55 100 CALM      29.83R FOG
GRAND MARAIS     N/A     62  59  90 CALM      29.82R
G MARAIS ARPRT CLOUDY    57  55  94 NW7       29.86R
$$
MNZ029>031-032-039>041-046>048-054>057-064-201100-
   West Central Minnesota

CITY           SKY/WX    TMP DP  RH WIND       PRES   REMARKS
FERGUS FALLS   PTCLDY    66  63  88 E6        29.80S
WHEATON        PTCLDY    57  57 100 E6        29.80S FOG
MORRIS         PTCLDY    63  61  94 SE6       29.79S FOG
ALEXANDRIA     CLEAR     63  61  93 E5        29.83S
ELBOW LAKE     FAIR      65  62  92 E6        29.81R
WADENA         FOG       57  55  94 CALM      29.83S VSB 1
GLENWOOD       CLEAR     61  61 100 E3        29.83R
APPLETON       PTCLDY    63  61  94 E5        29.77F
BENSON           N/A     61  61 100 E3        29.80S FOG
ORTONVILLE     MOCLDY    64  63  94 CALM      29.78F
MADISON        MOCLDY    64  63  94 CALM      29.78F FOG
WILLMAR        FAIR      61  57  88 CALM      29.82S FOG
$$
MNZ033>034-036-042>043-049>051-058-059-201100-
   Central Minnesota

CITY           SKY/WX    TMP DP  RH WIND       PRES   REMARKS
ST CLOUD       MOCLDY    63  61  93 E5        29.83R FOG
SAUK CENTRE    FAIR      61  60  99 E3        29.82F
PAYNESVILLE    CLEAR     58  58 100 CALM      29.82S FOG
AITKIN         HAZE      55  50  82 CALM      29.84R VSB 3/4
PINE RIVER     FOG       55  55 100 CALM      29.88R VSB 3/4
BRAINERD       FOG       57  57 100 CALM      29.84S VSB 3/4
STAPLES        PTCLDY    61  59  94 CALM      29.84R
LONG PRAIRIE   MOCLDY    57  57 100 CALM      29.84R FOG
LITTLE FALLS   CLEAR     61  59  94 CALM      29.83S
LITCHFIELD     CLEAR     63  63 100 CALM      29.82S FOG
BUFFALO        CLEAR     60  58  92 CALM      29.83S
MAPLE LAKE     FOG       60  60  99 CALM      29.83S VSB 3/4
$$
MNZ037-044-045-052-053-201100-
   East Central Minnesota

CITY           SKY/WX    TMP DP  RH WIND       PRES   REMARKS
PRINCETON      CLOUDY    64  63  94 NE3       29.83S VSB 1/4
MORA           CLEAR     55  55 100 CALM      29.86R
CAMBRIDGE      MOCLDY    63  55  77 CALM      29.82R
RUSH CITY      PTCLDY    60  59  96 NE5       29.84R
MOOSE LAKE     CLOUDY    55  55 100 CALM      29.84R FOG
HINCKLEY       CLOUDY    55  55 100 CALM      29.84S FOG
CLOQUET        FOG       61  57  88 CALM      29.85S VSB<1/4
MCGREGOR       CLOUDY    54  54 100 CALM      29.85S
$$
MNZ071>073-080-081-089-090-097-098-201100-
   Southwest Minnesota

CITY           SKY/WX    TMP DP  RH WIND       PRES   REMARKS
MONTEVIDEO     MOCLDY    63  63 100 S3        29.79F
GRANITE FALLS  PTCLDY    64  63  98 E6        29.81S
CANBY          CLOUDY    63  61  96 CALM      29.79F
MARSHALL       MOCLDY    64  59  82 S5        29.78F
REDWOOD FALLS  PTCLDY    64  63  96 E3        29.80S FOG
OLIVIA         PTCLDY    63  59  88 CALM      29.80F
PIPESTONE      CLOUDY    64  63  94 SE3       29.80F
WINDOM         PTCLDY    61  61 100 CALM      29.80F
WORTHINGTON    MOCLDY    61   5  11 E3        29.81F
JACKSON        PTCLDY    61  59  94 CALM      29.81F
TRACY          MOCLDY    67  63  87 CALM      29.79F
SLAYTON        MOCLDY    60  60  99 CALM      29.81F
$$
MNZ065>067-074>077-082>085-091>093-201100-
   South Central Minnesota

CITY           SKY/WX    TMP DP  RH WIND       PRES   REMARKS
MANKATO        CLEAR     64  61  88 CALM      29.81F
NEW ULM        PTCLDY    64  64 100 CALM      29.80F
ST JAMES       PTCLDY    63  61  94 CALM      29.81F FOG
FAIRMONT       CLEAR     63  43  48 CALM      29.81F
GLENCOE        CLEAR     62  59  91 CALM      29.81S FOG
FARIBAULT      MOCLDY    61  55  82 CALM      29.82S HAZE
OWATONNA       CLEAR     61  59  94 CALM      29.83R FOG
WASECA         CLEAR     55  52  88 CALM      29.84S FOG
ALBERT LEA     FOG       63  63 100 CALM      29.82F VSB 1/2
$$
MNZ078>079-086>088-094>096-201100-
   Southeast Minnesota

CITY           SKY/WX    TMP DP  RH WIND       PRES   REMARKS
ROCHESTER      FOG       61  59  93 CALM      29.85R VSB 1/4
RED WING       CLEAR     61  59  94 NE3       29.81S FOG
STANTON        CLEAR     61  59  94 CALM      29.81S FOG
DODGE CENTER   FOG       61  61 100 CALM      29.83S VSB 1/2
WINONA         CLEAR     61  61 100 CALM      29.82S FOG
AUSTIN         MOCLDY    59  57  94 CALM      29.82F FOG
PRESTON        FOG       61  61 100 CALM      29.84S VSB 1
$$
ABBREVIATIONS USED IN REMARKS
   TC - TEMPERATURES IN CELSIUS
  WCI - WIND CHILL INDEX
   HX - HEAT INDEX
  VSB - VISIBILITY
$$



USA.gov is the U.S. government's official web portal to all federal, state and local government web resources and services.